Probability
0 0 0 0 0 0 0 0 0 0 0 0 0 0 0 0 0 0 0 0 0 0 0 0 0 0 0 0 0 0 0 0 0 0 0 0 0 0 0 0 0 0 0
0 0 0 0 0 0 0 0 0 0 0 0 0 0 0 0 0 0 0 0 0 0 0 0 0 0 0 0 0 0 0 0 0 0 0 0 0 0 0 0 0 0 0
0 0 0 0 0 0 0 0 0 0 0 0 0 0 0 0 0 0 0 0 0 0 0 0 0 0 0 0 0 0 0 0 0 0 0 0 0 0 0 0 0 0 0
0 0 0 0 0 0 0 0 0 0 0 0 0 0 0 0 0 0 0 0 0 0 0 0 0 0 0 0 0 0 0 0 0 0 0 0 0 0 0 0 0 0 0
0 0 0 0 0 0 0 0 0 0 0 0 0 0 0 0 0 0 0 0 0 0 0 0 0 0 0 0 0 0 0 0 0 0 0 0 0 0 0 0 0 0 0
0 0 0 0 0 0 0 0 0 0 0 0 0 0 0 0 0 0 0 0 0 0 0 0 0 0 0 0 0 0 0 0 0 0 0 0 0 0 0 0 0 0 0
0 0 0 0 0 0 0 0 0 0 0 0 0 0 0 0 0 0 0 0 0 0 0 0 0 0 0 0 0 0 0 0 0 0 0 0 0 0 0 0 0 0 0
0 0 0 0 0 0 0 0 0 0 0 0 0 0 0 0 0 0 0 0 0 0 0 0 0 0 0 0 0 0 0 0 0 0 0 0 0 0 0 0 0 0 0
0 0 0 0 0 0 0 0 0 0 0 0 0 0 0 0 0 0 0 0 0 0 0 0 0 0 0 0 0 0 0 0 0 0 0 0 0 0 0 0 0 0 0
0 0 0 0 0 0 0 0 0 0 0 0 0 0 0 0 0 0 0 0 0 0 0 0 0 0 0 0 0 0 0 0 0 0 0 0 0 0 0 0 0 0 0
0 0 0 0 0 0 0 0 0 0 0 0 0 0 0 0 0 0 0 0 0 0 0 0 0 0 0 0 0 0 0 0 0 0 0 0 0 0 0 0 0 0 0
0 0 0 0 0 0 0 0 0 0 0 0 0 0 0 0 0 0 0 0 0 0 0 0 0 0 0 0 0 0 0 0 0 0 0 0 0 0 0 0 0 0 0
0 0 0 0 0 0 0 0 0 0 0 0 0 0 0 0 0 0 0 0 0 0 0 0 0 0 0 0 0 0 0 0 0 0 0 0 0 0 0 0 0 0 0
0 0 0 0 0 0 0 0 0 0 0 0 0 0 0 0 0 0 0 0 0 0 0 0 0 0 0 0 0 0 0 0 0 0 0 0 0 0 0 0 0 0 0
0 0 0 0 0 0 0 0 0 0 0 0 0 0 0 0 0 0 0 0 0 0 0 0 0 0 0 0 0 0 0 0 0 0 0 0 0 0 0 0 0 0 0
0 0 0 0 0 0 0 0 0 0 0 0 0 0 0 0 0 0 0 0 0 0 0 0 0 0 0 0 0 0 0 0 0 0 0 0 0 0 0 0 0 0 0
0 0 0 0 0 0 0 0 0 0 0 0 0 0 0 0 0 0 0 0 0 0 0 0 0 0 0 0 0 0 0 0 0 0 0 0 0 0 0 0 0 0 0
0 0 0 0 0 0 0 0 0 0 0 0 0 0 0 0 0 0 0 0 0 0 0 0 0 0 0 0 0 0 0 0 0 0 0 0 0 0 0 0 0 0 0
0 0 0 0 0 0 0 0 0 0 0 0 0 0 0 0 0 0 0 0 0 0 0 0 0 0 0 0 0 0 0 0 0 0 0 0 0 0 0 0 0 0 0
0 0 0 0 0 0 0 0 0 0 0 0 0 0 0 0 0 0 0 0 0 0 0 0 0 0 0 0 0 0 0 0 0 0 0 0 0 0 0 0 0 0 0
0 0 0 0 0 0 0 0 0 0 0 0 0 0 0 0 0 0 0 0 0 0 0 0 0 0 0 0 0 0 0 0 0 0 0 0 0 0 0 0 0 0 0
0 0 0 0 0 0 0 0 0 0 0 0 0 0 0 0 0 0 0 0 0 0 0 0 0 0 0 0 0 0 0 0 0 0 0 0 0 0 0 0 0 0 0
0 0 0 0 0 0 0 0 0 0 0 0 0 0 0 0 0 0 0 0 0 0 0 0 0 0 0 0 0 0 0 0 0 0 0 0 0 0 0 0 0 0 0
0 0 0 0 0 0 0 0 0 0 0 0 0 0 0 0 0 0 0 0 0 0 0 0 0 0 0 0 0 0 0 0 0 0 0 0 0 0 0 0 0 0 0
0 0 0 0 0 0 0 0 0 0 0 0 0 0 0 0 0 0 0 0 0 0 0 0 0 0 0 0 0 0 0 0 0 0 0 0 0 0 0 0 0 0 0
0 0 0 0 0 0 0 0 0 0 0 0 0 0 0 0 0 0 0 0 0 0 0 0 0 0 0 0 0 0 0 0 0 0 0 0 0 0 0 0 0 0 0
Height
5828 5826 5823 5821 5819 5817 5814 5812 5809 5806 5804 5801 5798 5795 5792 5789 5786 5783 5780 5776 5772 5768 5764 5760 5757 5753 5750 5746 5743 5739 5736 5732 5728 5725 5722 5718 5715 5713 5711 5708 5706 5704 5701
5820 5818 5815 5813 5810 5808 5806 5803 5800 5798 5795 5792 5789 5786 5783 5780 5777 5773 5770 5767 5763 5759 5755 5752 5748 5744 5740 5737 5733 5730 5726 5722 5718 5715 5711 5708 5704 5702 5700 5697 5694 5692 5690
5811 5809 5807 5805 5803 5800 5797 5794 5791 5788 5785 5782 5779 5775 5772 5770 5767 5764 5760 5756 5752 5749 5745 5742 5738 5734 5730 5726 5723 5719 5716 5713 5709 5705 5701 5697 5693 5690 5687 5684 5682 5679 5678
5804 5802 5800 5797 5794 5792 5789 5786 5783 5779 5776 5773 5769 5765 5763 5759 5756 5753 5748 5744 5740 5736 5733 5729 5726 5723 5719 5715 5711 5708 5705 5702 5699 5695 5690 5686 5682 5678 5675 5672 5670 5667 5665
5797 5795 5792 5789 5786 5783 5781 5777 5774 5770 5767 5763 5758 5755 5752 5748 5744 5741 5737 5732 5728 5724 5720 5717 5713 5710 5707 5703 5699 5696 5693 5690 5686 5683 5679 5674 5670 5667 5664 5661 5658 5656 5653
5789 5787 5784 5781 5778 5775 5772 5768 5765 5760 5757 5752 5748 5745 5741 5737 5733 5730 5725 5720 5716 5712 5708 5705 5700 5697 5693 5690 5686 5683 5679 5676 5672 5669 5666 5662 5658 5655 5652 5649 5646 5644 5641
5781 5779 5776 5773 5769 5766 5763 5759 5755 5751 5747 5742 5737 5734 5730 5726 5722 5718 5712 5707 5703 5698 5694 5691 5687 5684 5681 5677 5674 5670 5666 5662 5658 5655 5652 5649 5646 5643 5639 5637 5634 5632 5629
5773 5770 5767 5764 5760 5757 5753 5749 5744 5740 5737 5731 5726 5721 5718 5717 5711 5704 5699 5694 5689 5685 5682 5678 5674 5671 5668 5664 5660 5656 5652 5648 5645 5642 5639 5637 5634 5630 5627 5624 5621 5619 5617
5764 5760 5757 5753 5749 5745 5741 5736 5731 5726 5722 5718 5712 5705 5701 5699 5697 5693 5686 5681 5676 5672 5668 5664 5660 5657 5654 5650 5645 5642 5638 5634 5631 5629 5627 5624 5621 5618 5615 5612 5609 5606 5604
5753 5749 5745 5741 5736 5731 5727 5722 5716 5711 5706 5703 5697 5691 5685 5680 5674 5673 5673 5667 5661 5657 5654 5649 5645 5642 5640 5636 5631 5627 5623 5620 5617 5615 5613 5611 5608 5606 5602 5599 5596 5594 5592
5742 5737 5733 5728 5722 5717 5712 5706 5701 5696 5690 5686 5681 5675 5668 5662 5657 5651 5650 5652 5647 5642 5637 5633 5629 5627 5624 5620 5616 5613 5609 5606 5604 5602 5600 5598 5595 5593 5589 5587 5584 5582 5580
5729 5724 5719 5714 5708 5703 5697 5691 5685 5679 5674 5668 5663 5657 5650 5645 5641 5634 5630 5629 5628 5628 5622 5617 5614 5610 5607 5603 5601 5598 5593 5590 5589 5587 5585 5584 5582 5580 5577 5575 5572 5570 5568
5715 5710 5704 5699 5693 5687 5681 5675 5669 5663 5657 5651 5646 5639 5633 5628 5624 5618 5613 5609 5606 5606 5604 5602 5600 5595 5590 5587 5584 5582 5577 5574 5572 5570 5569 5569 5568 5566 5564 5562 5561 5558 5556
5701 5696 5690 5684 5677 5670 5664 5658 5652 5646 5640 5634 5628 5622 5616 5611 5606 5601 5595 5590 5586 5585 5583 5582 5583 5579 5574 5570 5567 5565 5561 5559 5556 5554 5553 5553 5553 5552 5550 5549 5548 5545 5544
5686 5679 5673 5666 5659 5652 5644 5637 5631 5625 5619 5613 5607 5601 5596 5592 5587 5582 5576 5570 5564 5560 5562 5564 5562 5562 5557 5552 5550 5547 5544 5543 5540 5538 5537 5537 5537 5536 5535 5535 5534 5533 5531
5670 5662 5655 5647 5639 5632 5624 5616 5610 5603 5595 5589 5583 5578 5574 5569 5565 5560 5554 5549 5544 5538 5536 5543 5542 5540 5537 5534 5532 5529 5526 5524 5522 5522 5520 5520 5520 5520 5520 5520 5520 5519 5517
5652 5644 5635 5627 5619 5610 5602 5594 5586 5579 5572 5567 5562 5556 5552 5548 5543 5538 5533 5528 5524 5518 5512 5518 5520 5520 5517 5515 5514 5511 5509 5506 5505 5504 5503 5503 5503 5504 5504 5505 5505 5505 5504
5632 5623 5614 5606 5597 5587 5578 5569 5561 5554 5548 5543 5539 5534 5530 5525 5521 5516 5511 5507 5503 5499 5492 5492 5498 5499 5498 5496 5494 5492 5492 5490 5488 5488 5487 5486 5487 5488 5488 5489 5490 5490 5490
5611 5601 5591 5581 5571 5562 5553 5543 5535 5529 5524 5519 5515 5510 5506 5501 5497 5493 5488 5485 5482 5479 5475 5471 5474 5477 5476 5475 5473 5473 5473 5471 5470 5470 5470 5470 5470 5472 5472 5473 5474 5475 5476
5586 5576 5565 5555 5545 5536 5527 5517 5510 5506 5502 5497 5491 5486 5482 5476 5472 5468 5465 5464 5460 5458 5456 5452 5451 5454 5456 5455 5452 5452 5451 5452 5452 5451 5452 5453 5454 5455 5456 5457 5459 5460 5460
5560 5549 5540 5531 5521 5512 5504 5495 5489 5485 5480 5475 5470 5465 5460 5454 5448 5443 5441 5440 5438 5436 5434 5431 5429 5430 5433 5433 5431 5430 5429 5431 5431 5432 5432 5434 5436 5437 5439 5441 5442 5443 5444
5536 5525 5516 5508 5501 5492 5484 5476 5469 5465 5460 5454 5449 5445 5440 5434 5428 5423 5418 5416 5414 5411 5410 5408 5408 5409 5411 5410 5408 5407 5407 5408 5410 5415 5413 5415 5416 5418 5421 5423 5425 5426 5427
5515 5506 5497 5489 5482 5474 5465 5458 5450 5443 5437 5431 5425 5420 5416 5412 5405 5400 5398 5397 5395 5391 5387 5384 5386 5389 5388 5388 5385 5385 5385 5385 5388 5392 5394 5396 5399 5400 5404 5405 5407 5409 5411
5496 5488 5480 5471 5464 5456 5446 5438 5429 5422 5415 5408 5401 5394 5389 5386 5380 5373 5372 5374 5374 5373 5368 5364 5364 5366 5367 5366 5364 5363 5364 5366 5369 5373 5377 5380 5383 5386 5388 5390 5392 5394 5396
5479 5471 5462 5453 5445 5437 5427 5416 5405 5398 5391 5384 5376 5369 5363 5359 5355 5347 5345 5346 5349 5350 5348 5346 5346 5346 5346 5346 5345 5344 5346 5348 5352 5356 5361 5365 5368 5371 5373 5376 5378 5380 5382
5461 5452 5444 5434 5424 5415 5404 5392 5380 5371 5364 5357 5350 5344 5338 5332 5328 5323 5320 5321 5323 5325 5327 5329 5329 5328 5328 5328 5329 5329 5331 5334 5337 5342 5346 5350 5354 5356 5359 5362 5364 5366 5369
Wind_Speed
38 39 41 42 41 39 39 39 40 41 40 39 39 39 39 39 39 39 39 40 40 41 41 42 42 43 43 44 45 45 44 42 42 43 44 45 46 47 49 50 50 49 49
41 42 43 43 42 41 41 41 42 43 43 43 43 43 43 44 45 45 45 44 43 43 43 44 45 45 46 46 46 46 45 43 43 44 45 45 46 47 49 51 53 53 53
38 39 40 41 42 42 43 42 43 44 46 47 48 49 49 49 48 48 48 46 45 45 45 46 47 48 49 48 47 46 45 44 45 45 46 47 48 48 50 52 54 56 56
37 38 39 41 42 42 43 44 44 46 48 49 51 53 53 53 52 51 50 49 48 48 48 49 50 51 51 50 48 47 46 46 46 46 47 48 49 51 51 53 55 57 56
36 37 38 40 41 42 43 45 47 48 49 51 54 55 56 57 56 54 52 53 52 52 52 52 52 52 52 51 50 49 49 48 47 47 48 48 50 52 52 54 56 56 55
36 38 39 40 42 44 45 47 49 51 52 53 55 56 57 58 58 56 56 56 55 56 57 56 55 54 53 52 52 51 50 49 47 46 46 47 49 50 51 53 55 56 55
36 37 38 39 41 43 43 44 46 48 49 52 55 56 57 58 58 58 59 59 59 60 59 58 57 56 54 53 53 52 51 49 46 46 46 47 47 48 49 50 52 53 54
40 41 43 44 45 47 48 49 51 52 53 55 57 60 61 61 60 62 63 62 62 62 59 58 59 59 57 54 53 52 50 48 47 47 46 45 45 47 47 47 48 50 51
46 48 49 50 52 53 54 54 56 58 59 59 61 64 67 67 65 63 63 64 64 63 61 60 60 60 58 54 54 53 50 48 45 45 44 43 43 43 43 43 46 46 47
49 51 52 54 56 57 59 60 61 62 64 64 65 67 69 72 74 72 65 63 64 63 61 61 61 61 58 56 56 56 54 50 44 43 42 42 43 41 40 42 44 45 46
52 54 56 58 60 62 64 66 67 69 70 71 71 72 73 73 73 74 72 64 61 60 60 61 63 62 59 58 58 57 56 51 44 43 42 41 42 39 38 41 42 44 45
56 58 60 62 63 65 66 67 68 69 70 71 71 71 71 70 67 66 67 65 63 60 61 62 63 62 60 58 56 55 54 50 45 43 43 42 42 40 38 39 40 43 45
58 59 61 63 65 65 66 66 67 67 68 69 70 71 71 69 67 65 65 66 66 65 65 62 59 60 61 60 58 57 55 51 47 44 44 44 45 42 39 39 40 42 44
61 63 65 66 68 70 71 72 72 73 73 74 75 76 77 77 76 74 71 71 71 70 69 67 62 60 61 62 62 60 58 53 48 46 45 45 46 45 40 39 40 43 44
66 68 70 71 72 74 75 76 78 78 79 80 81 81 80 80 79 79 77 75 74 75 73 70 69 66 64 63 61 59 57 55 51 49 48 47 47 46 41 40 41 43 46
70 73 75 76 78 80 81 82 83 83 84 85 85 84 83 80 79 78 76 75 74 73 76 71 69 68 67 65 62 61 59 55 52 50 50 50 49 47 44 42 42 45 47
78 80 82 83 84 85 86 87 88 89 89 88 86 84 82 81 80 79 78 77 75 73 73 70 65 63 62 62 62 61 58 55 52 49 49 50 49 47 46 44 44 46 47
86 88 89 90 91 90 90 89 89 90 90 89 86 84 81 79 79 78 78 77 74 72 72 71 66 61 59 59 59 59 57 55 52 49 49 49 48 47 46 46 46 48 48
93 95 96 95 94 92 91 90 89 89 87 85 83 81 79 77 76 75 76 75 75 73 72 71 67 61 57 56 56 56 55 53 52 51 51 50 48 47 45 46 47 49 50
98 98 97 95 92 90 88 87 86 84 81 79 78 77 75 74 74 74 74 74 74 74 72 71 68 63 58 56 56 55 54 53 52 51 52 51 50 48 45 46 47 49 51
97 96 94 91 87 83 80 78 77 76 75 74 73 72 71 72 72 73 74 73 73 72 71 70 68 64 60 58 57 55 54 53 53 54 56 54 50 49 47 46 46 47 50
90 87 84 81 77 74 73 73 73 72 72 72 72 71 71 70 70 71 71 71 71 70 69 67 66 64 61 59 58 56 54 53 54 54 54 50 47 47 48 49 51 50 51
78 75 73 72 70 69 69 70 71 72 73 74 74 74 73 72 73 73 72 70 69 69 69 69 67 64 62 59 59 57 55 53 53 54 53 50 46 44 47 49 52 51 51
69 68 67 68 68 69 72 74 76 78 79 80 81 81 79 77 77 78 76 73 71 70 70 69 68 65 62 59 58 57 54 53 52 49 48 46 45 44 45 45 44 45 47
66 67 69 71 73 75 78 81 84 85 85 85 84 82 81 78 76 76 75 73 71 69 67 65 63 61 58 56 55 54 52 50 48 45 44 45 43 43 43 43 42 43 44
69 72 74 78 81 83 85 87 89 89 88 85 82 78 75 72 70 69 68 67 65 62 59 56 54 52 52 51 50 48 47 46 44 43 41 41 40 40 40 41 40 39 40
Wind_Direction
275 278 282 285 286 285 283 280 277 276 278 281 283 286 289 291 293 295 297 298 299 299 300 301 302 303 303 303 303 302 302 302 303 304 305 299 293 291 288 285 283 280 279
276 277 279 281 282 282 282 281 278 276 277 279 280 283 285 288 291 293 294 295 295 296 297 298 298 298 299 299 298 297 298 299 299 300 301 300 295 291 288 285 282 279 278
274 275 277 278 278 279 281 281 280 279 279 279 280 282 283 286 288 291 293 294 294 295 295 294 295 296 297 297 295 295 295 295 296 296 296 296 296 293 290 285 282 280 277
275 276 277 279 279 280 280 280 281 281 281 281 281 282 284 286 287 290 291 292 292 291 291 292 293 294 295 294 292 292 292 291 293 294 293 292 292 291 290 287 284 282 278
282 283 283 283 282 282 281 281 281 281 281 281 281 283 284 285 286 288 289 289 290 290 290 290 292 293 294 293 292 292 291 290 291 292 292 290 289 288 289 288 287 287 281
284 285 286 287 287 287 286 285 283 283 283 283 284 285 285 286 288 289 289 289 290 290 290 291 292 293 294 294 293 292 290 289 289 290 290 288 289 288 288 288 287 288 284
290 291 292 293 293 293 292 291 289 288 287 286 286 286 287 289 290 290 289 289 289 288 289 290 291 292 292 292 293 291 290 290 289 290 289 289 290 290 289 288 288 287 284
297 297 298 298 298 297 296 295 293 291 289 287 287 286 286 286 288 287 287 287 287 287 288 288 289 290 291 292 292 292 292 291 293 292 289 289 291 291 292 291 289 287 282
302 302 301 300 299 298 296 294 292 290 289 287 287 287 287 287 286 286 286 287 288 288 288 288 289 290 291 292 291 292 292 292 294 295 291 290 292 294 295 292 289 285 280
301 300 298 297 296 294 293 291 290 289 289 288 287 287 288 288 288 287 286 287 287 287 288 288 288 290 292 292 293 292 293 293 294 294 291 291 293 296 297 293 289 285 280
296 295 294 292 291 291 290 290 289 289 289 289 289 289 288 288 288 288 287 285 284 285 287 287 289 291 293 293 294 293 293 291 291 290 289 290 292 294 296 293 289 283 280
293 293 292 291 291 290 290 289 289 290 290 290 290 290 290 289 288 287 286 285 283 283 284 286 289 292 293 293 293 292 291 288 287 286 285 286 289 292 291 289 287 283 280
297 297 296 296 295 294 292 291 290 290 289 289 289 289 288 287 286 284 283 282 281 280 280 282 286 288 289 290 290 289 288 287 286 284 282 283 285 287 287 282 281 280 278
300 300 298 297 296 295 293 292 290 289 289 288 288 287 286 286 285 284 283 282 280 277 276 277 277 280 283 285 285 286 285 284 285 282 280 280 282 283 282 277 275 277 277
301 301 299 298 296 295 293 292 291 290 289 288 287 286 286 286 286 285 285 285 284 281 278 276 276 276 277 279 281 283 283 282 282 279 277 276 279 280 278 275 272 271 274
300 300 299 298 297 296 295 293 291 290 288 288 287 288 287 287 286 286 286 286 285 285 284 282 280 278 276 276 278 280 282 282 280 277 274 273 275 276 274 273 271 270 269
298 298 297 296 295 293 292 291 290 288 286 285 285 286 287 287 287 287 286 286 285 285 286 286 284 282 279 278 277 279 280 280 280 278 274 271 271 271 271 271 272 272 269
297 297 296 295 293 291 289 288 286 285 284 284 284 285 285 285 286 286 286 286 285 284 284 285 284 283 281 279 278 278 278 278 277 275 272 270 267 267 268 268 272 272 270
297 297 296 295 293 290 289 287 286 285 285 285 285 285 285 285 284 284 284 284 284 283 283 284 284 283 282 280 279 278 277 274 272 270 268 267 265 263 265 267 270 269 268
297 296 296 295 293 291 290 290 289 289 289 289 289 288 288 286 285 284 284 283 283 283 283 284 285 285 284 284 283 281 275 271 268 264 262 263 262 260 261 264 266 266 266
297 297 296 295 295 295 295 294 294 293 293 292 291 291 290 289 288 287 286 285 283 283 283 283 284 285 286 285 285 282 276 270 263 258 257 258 259 257 257 260 264 265 265
297 297 297 297 297 297 296 295 294 294 293 291 290 289 288 287 286 285 285 285 284 284 283 282 282 284 285 285 284 281 276 269 263 257 259 259 258 253 252 256 261 263 262
299 299 300 299 299 299 298 297 296 295 294 293 292 290 288 287 285 284 283 283 283 283 283 283 283 284 285 285 284 280 273 267 263 260 260 262 258 254 254 261 261 261 259
301 301 301 300 300 299 299 298 297 297 296 296 295 293 291 288 286 284 283 282 281 281 281 281 282 283 284 284 282 279 272 266 261 260 261 262 257 256 260 263 262 259 257
302 302 302 301 301 300 300 299 299 298 297 296 295 294 292 289 287 285 283 281 280 279 278 279 280 281 281 279 277 275 271 266 260 256 258 259 258 258 259 259 261 257 255
303 303 302 302 301 301 301 300 299 299 299 298 297 295 294 291 287 284 282 281 279 277 276 275 274 274 274 274 273 271 269 264 257 254 256 259 259 257 255 257 257 253 251